• In Germany
  • List of Countries
  • For 7 days
  • Water Temperature
  • Satellite Maps
  • Weather Map
  • Weather Widgets
  • user-avatar
    Login

    Hourly Weather Gjirokaster

    Today, 13 December, Wednesday

    Time Temperature Precipitation Wind Pressure Humidity
    00:00 +3°C° 0 mm 4 mps 654 mmHg 93%
    01:00 +3°C° 0 mm 4 mps 654 mmHg 94%
    02:00 +3°C° 0 mm 4 mps 654 mmHg 94%
    03:00 +3°C° 0 mm 4 mps 654 mmHg 94%
    04:00 +3°C° 0 mm 4 mps 654 mmHg 95%
    05:00 +3°C° 0 mm 4 mps 654 mmHg 95%
    06:00 +1°C° 0 mm 4 mps 654 mmHg 95%
    07:00 +1°C° 0 mm 4 mps 654 mmHg 95%
    08:00 +3°C° 0 mm 4 mps 654 mmHg 92%
    09:00 +4°C° 0 mm 4 mps 655 mmHg 89%
    10:00 +5°C° 0 mm 4 mps 655 mmHg 86%
    11:00 +6°C° 0 mm 4 mps 655 mmHg 84%
    12:00 +6°C° 0 mm 4 mps 654 mmHg 82%
    13:00 +7°C° 0 mm 4 mps 654 mmHg 79%
    14:00 +6°C° 0 mm 4 mps 654 mmHg 83%
    15:00 +5°C° 0 mm 4 mps 653 mmHg 87%
    16:00 +5°C° 0 mm 4 mps 653 mmHg 90%
    17:00 +4°C° 0.1 mm 4 mps 653 mmHg 91%
    18:00 +4°C° 0.1 mm 4 mps 652 mmHg 93%
    19:00 +4°C° 0.1 mm 4 mps 652 mmHg 94%
    20:00 +4°C° 1 mm 4 mps 652 mmHg 94%
    21:00 +4°C° 1 mm 4 mps 652 mmHg 95%
    22:00 +4°C° 1 mm 3 mps 652 mmHg 95%
    23:00 +3°C° 1 mm 3 mps 652 mmHg 95%

    Tomorrow, 14 December, Thursday

    Time Temperature Precipitation Wind Pressure Humidity
    00:00 +4°C° 1 mm 2 mps 652 mmHg 95%
    01:00 +4°C° 1 mm 2 mps 651 mmHg 94%
    02:00 +4°C° 0.2 mm 2 mps 651 mmHg 94%
    03:00 +4°C° 0.2 mm 2 mps 651 mmHg 94%
    04:00 +3°C° 0.2 mm 2 mps 651 mmHg 93%
    05:00 +3°C° 0.1 mm 2 mps 651 mmHg 93%
    06:00 +3°C° 0.1 mm 2 mps 651 mmHg 93%
    07:00 +2°C° 0.1 mm 3 mps 651 mmHg 93%
    08:00 +3°C° 0 mm 2 mps 651 mmHg 88%
    09:00 +4°C° 0 mm 2 mps 652 mmHg 82%
    10:00 +5°C° 0 mm 2 mps 652 mmHg 77%
    11:00 +5°C° 0 mm 2 mps 652 mmHg 72%
    12:00 +5°C° 0 mm 2 mps 652 mmHg 68%
    13:00 +6°C° 0 mm 2 mps 652 mmHg 63%
    14:00 +5°C° 0 mm 2 mps 652 mmHg 67%
    15:00 +5°C° 0 mm 1 mps 651 mmHg 71%
    16:00 +5°C° 0 mm 1 mps 651 mmHg 74%
    17:00 +4°C° 0 mm 1 mps 651 mmHg 77%
    18:00 +3°C° 0 mm 1 mps 651 mmHg 79%
    19:00 +2°C° 0 mm 2 mps 651 mmHg 82%
    20:00 +2°C° 0 mm 2 mps 651 mmHg 83%
    21:00 +1°C° 0 mm 2 mps 651 mmHg 84%
    22:00 0°C° 0 mm 3 mps 651 mmHg 85%
    23:00 0°C° 0 mm 3 mps 651 mmHg 85%

    Day after tomorrow, 15 December, Friday

    Time Temperature Precipitation Wind Pressure Humidity
    00:00 0°C° 0 mm 3 mps 651 mmHg 84%
    01:00 0°C° 0 mm 3 mps 651 mmHg 84%
    02:00 0°C° 0 mm 3 mps 650 mmHg 83%
    03:00 -1°C° 0 mm 3 mps 650 mmHg 82%
    04:00 -1°C° 0 mm 3 mps 650 mmHg 81%
    05:00 -1°C° 0 mm 3 mps 650 mmHg 82%
    06:00 -2°C° 0 mm 4 mps 650 mmHg 83%
    07:00 -2°C° 0 mm 4 mps 650 mmHg 84%
    08:00 0°C° 0 mm 4 mps 650 mmHg 83%
    09:00 +3°C° 0 mm 4 mps 650 mmHg 82%
    10:00 +3°C° 0 mm 5 mps 651 mmHg 81%
    11:00 +3°C° 0 mm 5 mps 650 mmHg 81%
    12:00 +5°C° 0 mm 5 mps 650 mmHg 81%
    13:00 +4°C° 0 mm 6 mps 650 mmHg 80%
    14:00 +4°C° 0.1 mm 6 mps 649 mmHg 84%
    15:00 +3°C° 0.1 mm 6 mps 649 mmHg 87%
    16:00 +2°C° 0.1 mm 6 mps 649 mmHg 90%
    17:00 +2°C° 0.2 mm 6 mps 649 mmHg 91%
    18:00 +2°C° 0.2 mm 6 mps 649 mmHg 92%
    19:00 +2°C° 0.2 mm 6 mps 649 mmHg 93%
    20:00 +2°C° 0.2 mm 6 mps 649 mmHg 93%
    21:00 +2°C° 0.2 mm 6 mps 649 mmHg 93%
    22:00 +2°C° 0.2 mm 6 mps 649 mmHg 93%
    23:00 +2°C° 0.2 mm 6 mps 649 mmHg 93%

    16 December, Saturday

    Time Temperature Precipitation Wind Pressure Humidity
    00:00 +2°C° 0.2 mm 6 mps 648 mmHg 93%
    01:00 +2°C° 0.2 mm 6 mps 648 mmHg 94%
    02:00 +2°C° 0.2 mm 6 mps 648 mmHg 94%
    03:00 +2°C° 0.2 mm 6 mps 648 mmHg 94%
    04:00 +3°C° 0.2 mm 6 mps 648 mmHg 95%
    05:00 +3°C° 0.2 mm 6 mps 648 mmHg 95%
    06:00 +3°C° 0.2 mm 6 mps 647 mmHg 95%
    07:00 +3°C° 0.2 mm 6 mps 647 mmHg 95%
    08:00 +4°C° 0.1 mm 6 mps 647 mmHg 92%
    09:00 +4°C° 0.1 mm 7 mps 647 mmHg 89%
    10:00 +5°C° 0.1 mm 7 mps 647 mmHg 86%
    11:00 +5°C° 0.9 mm 7 mps 647 mmHg 87%
    12:00 +4°C° 0.9 mm 6 mps 646 mmHg 87%
    13:00 +4°C° 0.9 mm 6 mps 646 mmHg 88%
    14:00 +3°C° 2.7 mm 6 mps 645 mmHg 90%
    15:00 +3°C° 2.7 mm 5 mps 645 mmHg 92%
    16:00 +3°C° 2.7 mm 5 mps 644 mmHg 94%
    17:00 +3°C° 6 mm 4 mps 644 mmHg 95%
    18:00 +3°C° 6 mm 4 mps 644 mmHg 95%
    19:00 +1°C° 6 mm 4 mps 643 mmHg 95%
    20:00 +1°C° 5.4 mm 4 mps 643 mmHg 95%
    21:00 +3°C° 5.4 mm 4 mps 643 mmHg 95%
    22:00 +3°C° 5.4 mm 4 mps 642 mmHg 95%
    23:00 +2°C° 3.1 mm 5 mps 642 mmHg 95%

    17 December, Sunday

    Time Temperature Precipitation Wind Pressure Humidity
    00:00 +2°C° 3.1 mm 5 mps 642 mmHg 95%
    01:00 +1°C° 3.1 mm 5 mps 642 mmHg 95%
    02:00 +1°C° 0.6 mm 5 mps 643 mmHg 94%
    03:00 +1°C° 0.6 mm 4 mps 643 mmHg 93%
    04:00 0°C° 0.6 mm 4 mps 643 mmHg 92%
    05:00 0°C° 0 mm 4 mps 644 mmHg 92%
    06:00 +1°C° 0 mm 3 mps 645 mmHg 92%
    07:00 0°C° 0 mm 3 mps 646 mmHg 91%
    08:00 +1°C° 0.1 mm 3 mps 646 mmHg 86%
    09:00 +2°C° 0.1 mm 3 mps 647 mmHg 82%
    10:00 +2°C° 0.1 mm 3 mps 648 mmHg 77%
    11:00 +2°C° 0.1 mm 3 mps 648 mmHg 75%
    12:00 +2°C° 0.1 mm 3 mps 648 mmHg 73%
    13:00 +3°C° 0.1 mm 3 mps 648 mmHg 72%
    14:00 +3°C° 0.1 mm 2 mps 648 mmHg 75%
    15:00 +2°C° 0.1 mm 2 mps 649 mmHg 78%
    16:00 +2°C° 0.1 mm 2 mps 649 mmHg 81%
    17:00 +2°C° 0.1 mm 1 mps 649 mmHg 83%
    18:00 +2°C° 0.1 mm 1 mps 649 mmHg 85%
    19:00 +1°C° 0.1 mm 1 mps 650 mmHg 87%
    20:00 +1°C° 0 mm 1 mps 650 mmHg 87%
    21:00 0°C° 0 mm 1 mps 650 mmHg 88%
    22:00 0°C° 0 mm 1 mps 651 mmHg 88%
    23:00 0°C° 0.1 mm 1 mps 651 mmHg 87%

    18 December, Monday

    Time Temperature Precipitation Wind Pressure Humidity
    00:00 0°C° 0.1 mm 1 mps 651 mmHg 86%
    01:00 0°C° 0.1 mm 1 mps 651 mmHg 85%
    02:00 0°C° 0.2 mm 1 mps 651 mmHg 84%
    03:00 0°C° 0.2 mm 1 mps 651 mmHg 83%
    04:00 0°C° 0.2 mm 1 mps 651 mmHg 82%
    05:00 0°C° 0.2 mm 1 mps 651 mmHg 82%
    06:00 0°C° 0.2 mm 1 mps 652 mmHg 82%
    07:00 0°C° 0.2 mm 1 mps 652 mmHg 82%
    08:00 0°C° 0.2 mm 1 mps 652 mmHg 79%
    09:00 +1°C° 0.2 mm 1 mps 653 mmHg 76%
    10:00 +2°C° 0.2 mm 1 mps 653 mmHg 74%
    11:00 +1°C° 0.1 mm 2 mps 653 mmHg 73%
    12:00 +1°C° 0.1 mm 2 mps 652 mmHg 72%
    13:00 +2°C° 0.1 mm 2 mps 652 mmHg 71%
    14:00 +1°C° 0.1 mm 2 mps 652 mmHg 75%
    15:00 +1°C° 0.1 mm 2 mps 652 mmHg 78%
    16:00 -1°C° 0.1 mm 3 mps 652 mmHg 81%
    17:00 -1°C° 0.1 mm 3 mps 652 mmHg 83%
    18:00 -2°C° 0.1 mm 3 mps 652 mmHg 84%
    19:00 -2°C° 0.1 mm 3 mps 652 mmHg 85%
    20:00 -2°C° 0 mm 3 mps 652 mmHg 86%
    21:00 -4°C° 0 mm 3 mps 652 mmHg 86%
    22:00 -4°C° 0 mm 3 mps 652 mmHg 86%
    23:00 -4°C° 0 mm 3 mps 652 mmHg 86%
    Show more